Time,TemperatureF,DewpointF,PressureIn,WindDirection,WindDirectionDegrees,WindSpeedMPH,WindSpeedGustMPH,Humidity,HourlyPrecipIn,Conditions,Clouds,dailyrainin,SoftwareType,DateUTC
2013-01-10 00:03:00,72.0,67.0,30.27,ESE,104,2.0,7.0,83,0.00,,,0.00,,2013-01-10 05:03:00,
2013-01-10 00:12:00,72.0,67.0,30.27,ESE,104,2.0,7.0,83,0.00,,,0.00,,2013-01-10 05:12:00,
2013-01-10 00:22:00,72.0,67.0,30.27,East,101,0.0,6.0,84,0.00,,,0.00,,2013-01-10 05:22:00,
2013-01-10 00:33:00,72.0,67.0,30.27,ESE,113,1.0,6.0,84,0.00,,,0.00,,2013-01-10 05:33:00,
2013-01-10 00:43:00,72.0,67.0,30.27,ESE,113,1.0,6.0,84,0.00,,,0.00,,2013-01-10 05:43:00,
2013-01-10 00:53:00,72.0,67.0,30.27,ESE,108,0.0,3.0,84,0.00,,,0.00,,2013-01-10 05:53:00,
2013-01-10 01:02:00,72.0,67.0,30.27,ESE,107,1.0,7.0,84,0.00,,,0.00,,2013-01-10 06:02:00,
2013-01-10 01:12:00,72.0,67.0,30.27,ESE,107,1.0,7.0,84,0.00,,,0.00,,2013-01-10 06:12:00,
2013-01-10 01:22:00,72.0,67.0,30.27,ESE,106,1.0,5.0,84,0.00,,,0.00,,2013-01-10 06:22:00,
2013-01-10 01:32:00,72.0,67.0,30.27,East,99,2.0,6.0,84,0.00,,,0.00,,2013-01-10 06:32:00,
2013-01-10 01:42:00,72.0,67.0,30.27,East,99,2.0,6.0,84,0.00,,,0.00,,2013-01-10 06:42:00,
2013-01-10 01:52:00,72.0,67.0,30.27,ESE,110,0.0,10.0,84,0.00,,,0.00,,2013-01-10 06:52:00,
2013-01-10 02:02:00,72.0,67.0,30.27,SE,124,0.0,7.0,84,0.00,,,0.00,,2013-01-10 07:02:00,
2013-01-10 02:12:00,72.0,67.0,30.27,SE,124,0.0,7.0,84,0.00,,,0.00,,2013-01-10 07:12:00,
2013-01-10 02:22:00,73.0,68.0,30.27,ESE,121,2.0,8.0,84,0.00,,,0.00,,2013-01-10 07:22:00,
2013-01-10 02:32:00,72.0,67.0,30.27,ESE,108,1.0,6.0,84,0.00,,,0.00,,2013-01-10 07:32:00,
2013-01-10 02:42:00,72.0,67.0,30.27,ESE,108,1.0,6.0,84,0.00,,,0.00,,2013-01-10 07:42:00,
2013-01-10 02:52:00,72.0,67.0,30.27,ESE,104,4.0,8.0,84,0.00,,,0.00,,2013-01-10 07:52:00,
2013-01-10 03:02:00,72.0,67.0,30.27,East,93,0.0,7.0,84,0.00,,,0.00,,2013-01-10 08:02:00,
2013-01-10 03:12:00,72.0,67.0,30.27,East,93,0.0,7.0,84,0.00,,,0.00,,2013-01-10 08:12:00,
2013-01-10 03:22:00,71.0,66.0,30.27,East,91,1.0,6.0,84,0.00,,,0.00,,2013-01-10 08:22:00,
2013-01-10 03:32:00,71.0,66.0,30.27,East,90,2.0,6.0,84,0.00,,,0.00,,2013-01-10 08:32:00,
2013-01-10 03:42:00,71.0,66.0,30.27,East,90,2.0,6.0,84,0.00,,,0.00,,2013-01-10 08:42:00,
2013-01-10 03:53:00,71.0,66.0,30.27,East,92,2.0,6.0,84,0.00,,,0.00,,2013-01-10 08:53:00,
2013-01-10 04:02:00,71.0,66.0,30.27,East,92,2.0,6.0,84,0.00,,,0.00,,2013-01-10 09:02:00,
2013-01-10 04:12:00,71.0,66.0,30.27,East,92,2.0,6.0,84,0.00,,,0.00,,2013-01-10 09:12:00,
2013-01-10 04:22:00,71.0,66.0,30.27,East,92,2.0,6.0,84,0.00,,,0.00,,2013-01-10 09:22:00,
2013-01-10 06:53:00,69.0,65.0,30.26,ESE,103,0.0,5.0,86,0.00,,,0.00,,2013-01-10 11:53:00,
2013-01-10 07:03:00,69.0,65.0,30.27,ESE,104,0.0,1.0,86,0.00,,,0.00,,2013-01-10 12:03:00,
2013-01-10 07:12:00,69.0,65.0,30.27,ESE,104,0.0,1.0,86,0.00,,,0.00,,2013-01-10 12:12:00,
2013-01-10 07:22:00,68.0,64.0,30.27,ESE,104,0.0,0.0,86,0.00,,,0.00,,2013-01-10 12:22:00,
2013-01-10 07:33:00,68.0,64.0,30.27,East,96,1.0,5.0,86,0.00,,,0.00,,2013-01-10 12:33:00,
2013-01-10 07:43:00,68.0,64.0,30.27,East,96,1.0,5.0,86,0.00,,,0.00,,2013-01-10 12:43:00,
2013-01-10 07:53:00,68.0,64.0,30.28,East,96,0.0,4.0,86,0.00,,,0.00,,2013-01-10 12:53:00,
2013-01-10 08:02:00,68.0,64.0,30.27,East,96,1.0,4.0,86,0.00,,,0.00,,2013-01-10 13:02:00,
2013-01-10 08:12:00,68.0,64.0,30.27,East,96,1.0,4.0,86,0.00,,,0.00,,2013-01-10 13:12:00,
2013-01-10 08:22:00,69.0,65.0,30.27,ESE,113,1.0,7.0,86,0.00,,,0.00,,2013-01-10 13:22:00,
2013-01-10 08:32:00,69.0,65.0,30.27,ESE,109,2.0,8.0,86,0.00,,,0.00,,2013-01-10 13:32:00,
2013-01-10 08:42:00,69.0,65.0,30.27,ESE,109,2.0,8.0,86,0.00,,,0.00,,2013-01-10 13:42:00,
2013-01-10 08:53:00,70.0,65.0,30.28,ESE,106,3.0,7.0,85,0.00,,,0.00,,2013-01-10 13:53:00,
2013-01-10 09:02:00,72.0,67.0,30.29,East,101,2.0,7.0,84,0.00,,,0.00,,2013-01-10 14:02:00,
2013-01-10 09:12:00,72.0,67.0,30.29,East,101,2.0,7.0,84,0.00,,,0.00,,2013-01-10 14:12:00,
2013-01-10 09:22:00,73.0,68.0,30.29,SE,134,3.0,8.0,84,0.00,,,0.00,,2013-01-10 14:22:00,
2013-01-10 09:33:00,74.0,68.0,30.29,SE,134,2.0,8.0,83,0.00,,,0.00,,2013-01-10 14:33:00,
2013-01-10 09:43:00,74.0,68.0,30.29,SE,134,2.0,8.0,83,0.00,,,0.00,,2013-01-10 14:43:00,
2013-01-10 09:53:00,75.0,69.0,30.29,ESE,120,5.0,8.0,81,0.00,,,0.00,,2013-01-10 14:53:00,
2013-01-10 10:03:00,75.0,68.0,30.28,East,101,8.0,13.0,79,0.00,,,0.00,,2013-01-10 15:03:00,
2013-01-10 10:12:00,75.0,68.0,30.28,East,101,8.0,13.0,79,0.00,,,0.00,,2013-01-10 15:12:00,
2013-01-10 10:23:00,77.0,68.0,30.27,SE,141,9.0,15.0,75,0.00,,,0.00,,2013-01-10 15:23:00,
2013-01-10 10:33:00,77.0,68.0,30.27,SSE,149,7.0,13.0,74,0.00,,,0.00,,2013-01-10 15:33:00,
2013-01-10 10:43:00,77.0,68.0,30.27,SSE,149,7.0,13.0,74,0.00,,,0.00,,2013-01-10 15:43:00,
2013-01-10 10:53:00,78.0,68.0,30.26,SE,127,7.0,14.0,71,0.00,,,0.00,,2013-01-10 15:53:00,
2013-01-10 11:03:00,78.0,67.0,30.25,SE,134,7.0,13.0,68,0.00,,,0.00,,2013-01-10 16:03:00,
2013-01-10 11:13:00,78.0,67.0,30.25,SE,134,7.0,13.0,68,0.00,,,0.00,,2013-01-10 16:13:00,
2013-01-10 11:23:00,79.0,67.0,30.24,SSE,153,9.0,21.0,66,0.00,,,0.00,,2013-01-10 16:23:00,
2013-01-10 11:33:00,79.0,65.0,30.23,ESE,117,4.0,14.0,63,0.00,,,0.00,,2013-01-10 16:33:00,
2013-01-10 11:43:00,79.0,65.0,30.23,ESE,117,4.0,14.0,63,0.00,,,0.00,,2013-01-10 16:43:00,
2013-01-10 11:53:00,80.0,66.0,30.22,ESE,103,6.0,13.0,62,0.00,,,0.00,,2013-01-10 16:53:00,
2013-01-10 12:03:00,81.0,66.0,30.21,SE,132,4.0,13.0,60,0.00,,,0.00,,2013-01-10 17:03:00,
2013-01-10 12:12:00,81.0,66.0,30.21,SE,132,4.0,13.0,60,0.00,,,0.00,,2013-01-10 17:12:00,
2013-01-10 12:22:00,80.0,65.0,30.20,ESE,120,6.0,14.0,60,0.00,,,0.00,,2013-01-10 17:22:00,
2013-01-10 12:33:00,81.0,64.0,30.19,SSE,153,6.0,14.0,57,0.00,,,0.00,,2013-01-10 17:33:00,
2013-01-10 12:42:00,81.0,64.0,30.19,SSE,153,6.0,14.0,57,0.00,,,0.00,,2013-01-10 17:42:00,
2013-01-10 12:53:00,81.0,64.0,30.19,SSE,152,7.0,13.0,56,0.00,,,0.00,,2013-01-10 17:53:00,
2013-01-10 13:03:00,81.0,64.0,30.19,SSE,162,7.0,12.0,57,0.00,,,0.00,,2013-01-10 18:03:00,
2013-01-10 13:12:00,82.0,63.0,30.19,East,101,5.0,14.0,53,0.00,,,0.00,,2013-01-10 18:12:00,
2013-01-10 13:23:00,82.0,63.0,30.19,East,101,5.0,14.0,53,0.00,,,0.00,,2013-01-10 18:23:00,
2013-01-10 13:33:00,83.0,64.0,30.19,SE,128,3.0,14.0,53,0.00,,,0.00,,2013-01-10 18:33:00,
2013-01-10 13:43:00,83.0,63.0,30.19,SE,131,7.0,13.0,51,0.00,,,0.00,,2013-01-10 18:43:00,
2013-01-10 13:53:00,83.0,63.0,30.19,SE,131,7.0,13.0,51,0.00,,,0.00,,2013-01-10 18:53:00,
2013-01-10 14:03:00,83.0,62.0,30.19,SE,145,6.0,10.0,50,0.00,,,0.00,,2013-01-10 19:03:00,
2013-01-10 14:13:00,83.0,62.0,30.19,SSE,151,6.0,11.0,50,0.00,,,0.00,,2013-01-10 19:13:00,
2013-01-10 14:23:00,83.0,62.0,30.19,SSE,151,6.0,11.0,50,0.00,,,0.00,,2013-01-10 19:23:00,
2013-01-10 14:33:00,81.0,62.0,30.19,SE,142,4.0,9.0,52,0.00,,,0.00,,2013-01-10 19:33:00,
2013-01-10 14:43:00,81.0,62.0,30.19,SE,142,4.0,9.0,52,0.00,,,0.00,,2013-01-10 19:43:00,
2013-01-10 14:53:00,83.0,61.0,30.19,ESE,115,5.0,11.0,48,0.00,,,0.00,,2013-01-10 19:53:00,
2013-01-10 15:03:00,83.0,61.0,30.19,ESE,118,5.0,10.0,47,0.00,,,0.00,,2013-01-10 20:03:00,
2013-01-10 15:13:00,83.0,62.0,30.20,SSE,157,4.0,10.0,49,0.00,,,0.00,,2013-01-10 20:13:00,
2013-01-10 15:24:00,83.0,62.0,30.20,SSE,157,4.0,10.0,49,0.00,,,0.00,,2013-01-10 20:24:00,
2013-01-10 15:33:00,83.0,62.0,30.20,SSE,161,4.0,14.0,49,0.00,,,0.00,,2013-01-10 20:33:00,
2013-01-10 15:43:00,83.0,62.0,30.20,SSE,161,4.0,14.0,49,0.00,,,0.00,,2013-01-10 20:43:00,
2013-01-10 15:53:00,82.0,63.0,30.20,ESE,117,1.0,8.0,52,0.00,,,0.00,,2013-01-10 20:53:00,
2013-01-10 16:04:00,83.0,62.0,30.20,ESE,118,1.0,9.0,50,0.00,,,0.00,,2013-01-10 21:04:00,
2013-01-10 16:13:00,83.0,62.0,30.21,SSE,162,5.0,10.0,50,0.00,,,0.00,,2013-01-10 21:13:00,
2013-01-10 16:23:00,83.0,62.0,30.21,SSE,162,5.0,10.0,50,0.00,,,0.00,,2013-01-10 21:23:00,
2013-01-10 16:33:00,83.0,62.0,30.21,East,98,2.0,11.0,50,0.00,,,0.00,,2013-01-10 21:33:00,
2013-01-10 16:43:00,83.0,62.0,30.21,East,98,2.0,11.0,50,0.00,,,0.00,,2013-01-10 21:43:00,
2013-01-10 16:53:00,81.0,63.0,30.22,SE,135,2.0,8.0,55,0.00,,,0.00,,2013-01-10 21:53:00,
2013-01-10 17:03:00,81.0,64.0,30.22,SE,143,1.0,4.0,57,0.00,,,0.00,,2013-01-10 22:03:00,
2013-01-10 17:13:00,80.0,63.0,30.23,SE,143,1.0,6.0,56,0.00,,,0.00,,2013-01-10 22:13:00,
2013-01-10 17:26:00,80.0,63.0,30.23,SE,143,1.0,6.0,56,0.00,,,0.00,,2013-01-10 22:26:00,
2013-01-10 17:33:00,79.0,63.0,30.22,SE,141,1.0,5.0,58,0.00,,,0.00,,2013-01-10 22:33:00,
2013-01-10 17:43:00,79.0,63.0,30.22,SE,141,1.0,5.0,58,0.00,,,0.00,,2013-01-10 22:43:00,
2013-01-10 18:13:00,77.0,63.0,30.23,ESE,122,0.0,0.0,63,0.00,,,0.00,,2013-01-10 23:13:00,
2013-01-10 18:23:00,77.0,63.0,30.23,ESE,122,0.0,0.0,63,0.00,,,0.00,,2013-01-10 23:23:00,
2013-01-10 18:33:00,76.0,63.0,30.23,ESE,122,0.0,0.0,64,0.00,,,0.00,,2013-01-10 23:33:00,
2013-01-10 18:43:00,76.0,63.0,30.23,ESE,122,0.0,0.0,64,0.00,,,0.00,,2013-01-10 23:43:00,
2013-01-10 18:53:00,75.0,62.0,30.23,East,98,0.0,4.0,64,0.00,,,0.00,,2013-01-10 23:53:00,
2013-01-10 19:03:00,74.0,61.0,30.23,East,98,0.0,0.0,65,0.00,,,0.00,,2013-01-11 00:03:00,
2013-01-10 19:13:00,74.0,62.0,30.24,East,98,0.0,0.0,66,0.00,,,0.00,,2013-01-11 00:13:00,
2013-01-10 19:23:00,74.0,62.0,30.24,East,98,0.0,0.0,66,0.00,,,0.00,,2013-01-11 00:23:00,
2013-01-10 19:33:00,73.0,62.0,30.24,East,98,1.0,6.0,68,0.00,,,0.00,,2013-01-11 00:33:00,
2013-01-10 19:42:00,73.0,62.0,30.24,East,98,1.0,6.0,68,0.00,,,0.00,,2013-01-11 00:42:00,
2013-01-10 19:53:00,73.0,63.0,30.24,East,91,1.0,6.0,70,0.00,,,0.00,,2013-01-11 00:53:00,
2013-01-10 20:03:00,72.0,62.0,30.24,East,88,0.0,6.0,72,0.00,,,0.00,,2013-01-11 01:03:00,
2013-01-10 20:13:00,72.0,63.0,30.24,ESE,107,0.0,7.0,74,0.00,,,0.00,,2013-01-11 01:13:00,
2013-01-10 20:23:00,72.0,63.0,30.24,ESE,107,0.0,7.0,74,0.00,,,0.00,,2013-01-11 01:23:00,
2013-01-10 20:34:00,71.0,63.0,30.25,East,93,0.0,7.0,75,0.00,,,0.00,,2013-01-11 01:34:00,
2013-01-10 20:43:00,71.0,63.0,30.25,East,93,0.0,7.0,75,0.00,,,0.00,,2013-01-11 01:43:00,
2013-01-10 20:53:00,71.0,63.0,30.25,East,98,0.0,5.0,76,0.00,,,0.00,,2013-01-11 01:53:00,
2013-01-10 21:03:00,71.0,63.0,30.26,SE,141,1.0,6.0,77,0.00,,,0.00,,2013-01-11 02:03:00,
2013-01-10 21:13:00,70.0,63.0,30.26,ESE,105,0.0,4.0,78,0.00,,,0.00,,2013-01-11 02:13:00,
2013-01-10 21:33:00,70.0,63.0,30.27,ESE,105,0.0,3.0,79,0.00,,,0.00,,2013-01-11 02:33:00,
2013-01-10 21:43:00,70.0,63.0,30.27,ESE,105,0.0,3.0,79,0.00,,,0.00,,2013-01-11 02:43:00,
2013-01-10 21:54:00,70.0,64.0,30.27,ESE,105,0.0,0.0,80,0.00,,,0.00,,2013-01-11 02:54:00,
2013-01-10 22:03:00,69.0,63.0,30.27,ESE,104,0.0,0.0,80,0.00,,,0.00,,2013-01-11 03:03:00,
2013-01-10 22:12:00,69.0,63.0,30.27,ESE,105,0.0,0.0,81,0.00,,,0.00,,2013-01-11 03:12:00,
2013-01-10 22:23:00,69.0,63.0,30.27,ESE,105,0.0,0.0,81,0.00,,,0.00,,2013-01-11 03:23:00,
2013-01-10 22:33:00,69.0,63.0,30.27,ESE,105,0.0,0.0,81,0.00,,,0.00,,2013-01-11 03:33:00,
2013-01-10 22:43:00,69.0,63.0,30.27,ESE,105,0.0,0.0,81,0.00,,,0.00,,2013-01-11 03:43:00,
2013-01-10 22:53:00,68.0,63.0,30.27,ESE,105,0.0,0.0,83,0.00,,,0.00,,2013-01-11 03:53:00,
2013-01-10 23:02:00,68.0,63.0,30.27,ESE,105,0.0,3.0,83,0.00,,,0.00,,2013-01-11 04:02:00,
2013-01-10 23:12:00,68.0,63.0,30.27,ESE,105,0.0,3.0,83,0.00,,,0.00,,2013-01-11 04:12:00,
2013-01-10 23:22:00,67.0,62.0,30.27,East,96,0.0,3.0,83,0.00,,,0.00,,2013-01-11 04:22:00,
2013-01-10 23:33:00,67.0,62.0,30.27,East,96,0.0,0.0,83,0.00,,,0.00,,2013-01-11 04:33:00,
2013-01-10 23:43:00,67.0,62.0,30.27,East,96,0.0,0.0,83,0.00,,,0.00,,2013-01-11 04:43:00,
2013-01-10 23:53:00,67.0,62.0,30.27,East,96,0.0,4.0,84,0.00,,,0.00,,2013-01-11 04:53:00,